Weather History for Jacksonville, FL

Change the Weather History Date:

Thursday, December 27, 2012

  Actual Average Record
Temperature  
Mean Temperature 47 °F 53 °F  
Max Temperature 59 °F 65 °F 81 °F (2008)
Min Temperature 34 °F 42 °F 23 °F (1935)
Degree Days  
Heating Degree Days 18 12  
Month to date heating degree days 167 274  
Since 1 July heating degree days 415 447  
Cooling Degree Days 0 0  
Month to date cooling degree days 17 23  
Year to date cooling degree days 2760 2667  
Moisture  
Dew Point 35 °F    
Average Humidity 68    
Maximum Humidity 92    
Minimum Humidity 43    
Precipitation  
Precipitation 0.00 in 0.08 in 1.63 in (1964)
Month to date precipitation 1.76 2.45  
Year to date precipitation 52.86 52.04  
Snow  
Snow 0.00 in 0.00 in T in (1892)
Month to date snowfall 0.0 0.0  
Since 1 July snowfall 0.0 0.0  
Snow Depth 0.00 in    
Sea Level Pressure  
Sea Level Pressure 30.05 in    
Wind  
Wind Speed 6 mph (West)    
Max Wind Speed 15 mph    
Max Gust Speed 21 mph    
Visibility 10 miles    
Events      
T = Trace of Precipitation, MM = Missing Value Source: NWS Daily Summary

Daily Weather History Graph

Daily Weather History Graph

Search for Another Location

Airport:

Trip Planner

Search our weather history database for the weather conditions in past years. The results will help you decide how hot, cold, wet, or windy it might be!

Date:

Astronomy

Dec. 27, 2012 Rise Set
Actual Time 7:22 AM EST 5:33 PM EST
Civil Twilight 6:55 AM EST 6:00 PM EST
Nautical Twilight 6:25 AM EST 6:30 PM EST
Astronomical Twilight 5:56 AM EST 6:59 PM EST
Moon 5:13 PM EST (12/27) 6:34 AM EST (12/27)
Length of Visible Light 11h 04m
Length of Day
10h 11m
Full, 100% of the Moon is Illuminated
Dec 27
Full
Dec 28
Full
Jan 4
Last Quarter
Jan 11
New
Jan 18
First Quarter

Hourly Weather History & Observations

Time (EST) Temp. Windchill Dew Point Humidity Pressure Visibility Wind Dir Wind Speed Gust Speed Precip Events Conditions
12:56 AM 39.0 °F 32.8 °F 32.0 °F 76% 30.00 in 10.0 mi West 9.2 mph - N/A   Scattered Clouds
1:56 AM 37.0 °F 31.6 °F 32.0 °F 82% 30.00 in 10.0 mi West 6.9 mph - N/A   Mostly Cloudy
2:56 AM 36.0 °F 29.6 °F 32.0 °F 86% 30.00 in 10.0 mi West 8.1 mph - N/A   Mostly Cloudy
3:56 AM 36.0 °F 29.6 °F 32.0 °F 86% 30.01 in 10.0 mi West 8.1 mph - N/A   Scattered Clouds
4:56 AM 35.1 °F 30.1 °F 32.0 °F 89% 30.02 in 10.0 mi WSW 5.8 mph - N/A   Partly Cloudy
5:56 AM 34.0 °F 28.8 °F 30.9 °F 89% 30.03 in 10.0 mi West 5.8 mph - N/A   Clear
6:56 AM 34.0 °F 28.8 °F 30.9 °F 89% 30.05 in 10.0 mi West 5.8 mph - N/A   Partly Cloudy
7:56 AM 35.1 °F 29.3 °F 32.0 °F 89% 30.05 in 10.0 mi WNW 6.9 mph - N/A   Scattered Clouds
8:56 AM 39.9 °F 33.9 °F 33.1 °F 77% 30.08 in 10.0 mi WNW 9.2 mph 20.7 mph N/A   Partly Cloudy
9:56 AM 43.0 °F 37.2 °F 33.1 °F 68% 30.09 in 10.0 mi NW 10.4 mph - N/A   Partly Cloudy
10:56 AM 46.9 °F - 34.0 °F 61% 30.10 in 10.0 mi West 11.5 mph - N/A   Scattered Clouds
11:56 AM 50.0 °F - 35.1 °F 57% 30.09 in 10.0 mi West 8.1 mph - N/A   Mostly Cloudy
12:56 PM 53.1 °F - 36.0 °F 52% 30.06 in 10.0 mi WSW 9.2 mph - N/A   Mostly Cloudy
1:56 PM 55.0 °F - 36.0 °F 49% 30.03 in 10.0 mi Variable 6.9 mph - N/A   Mostly Cloudy
2:56 PM 57.2 °F - 35.6 °F 44% 30.02 in 10.0 mi WSW 8.1 mph - N/A   Mostly Cloudy
3:56 PM 59.0 °F - 37.0 °F 44% 30.02 in 10.0 mi West 8.1 mph - N/A   Mostly Cloudy
4:56 PM 57.0 °F - 37.9 °F 49% 30.02 in 10.0 mi West 6.9 mph - N/A   Mostly Cloudy
5:56 PM 51.1 °F - 39.0 °F 63% 30.04 in 10.0 mi West 3.5 mph - N/A   Scattered Clouds
6:56 PM 46.9 °F - 39.0 °F 74% 30.05 in 10.0 mi West 4.6 mph - N/A   Scattered Clouds
7:56 PM 44.1 °F 42.5 °F 39.0 °F 82% 30.06 in 10.0 mi West 3.5 mph - N/A   Scattered Clouds
8:56 PM 42.8 °F - 37.4 °F 81% 30.08 in 10.0 mi Calm Calm - N/A   Partly Cloudy
9:56 PM 39.9 °F - 37.0 °F 89% 30.09 in 10.0 mi Calm Calm - N/A   Clear
10:56 PM 37.9 °F - 36.0 °F 93% 30.10 in 10.0 mi Calm Calm - N/A   Clear
11:56 PM 37.0 °F - 35.1 °F 93% 30.09 in 9.0 mi Calm Calm - N/A   Clear